Location: Unspecified
(0.0000°N, 0.0000°E)
Time: 02:24:43
(UTC+00:00)

Courier 1B - All Passes

Search period start: 13 July 2024 00:00
Search period end: 23 July 2024 00:00
Orbit: 962 x 1209 km, 28.3° (Epoch: 12 July)

Date Brightness Start Highest point End Pass type
(mag) Time Alt. Az. Time Alt. Az. Time Alt. Az.
13 Jul - 01:40:43 10° W 01:46:27 30° SSW 01:52:29 10° SSE night (unlit)
13 Jul - 09:25:16 10° SSW 09:31:13 23° SSE 09:37:07 10° ESE daylight
13 Jul - 11:18:10 10° SW 11:26:01 70° SSE 11:33:33 10° ENE daylight
13 Jul - 13:13:25 10° W 13:20:25 37° NNW 13:27:05 10° NE daylight
13 Jul - 15:13:08 10° NW 15:15:22 11° NNW 15:17:33 10° N daylight
13 Jul - 21:00:27 10° N 21:04:02 15° NNE 21:07:38 10° ENE visible
13 Jul - 22:52:07 10° NW 22:58:25 55° NNE 23:04:54 10° ESE night (unlit)
14 Jul - 00:46:23 10° W 00:52:29 41° SSW 00:58:55 10° SE night (unlit)
14 Jul - 02:44:25 10° SW 02:47:23 13° SSW 02:50:25 10° S night (unlit)
14 Jul - 08:32:01 10° SSW 08:36:55 17° SSE 08:41:48 10° ESE daylight
14 Jul - 10:24:17 10° SW 10:31:54 51° SSE 10:39:21 10° ENE daylight
14 Jul - 12:18:49 10° WSW 12:26:22 52° NNW 12:33:35 10° NE daylight
14 Jul - 14:16:44 10° WNW 14:21:06 16° NNW 14:25:21 10° NNE daylight
14 Jul - 20:08:19 10° N 20:09:55 11° NNE 20:11:31 10° NE visible
14 Jul - 21:58:39 10° NW 22:04:36 38° NNE 22:10:36 10° E visible
14 Jul - 23:52:16 10° WNW 23:58:37 57° SSW 00:05:14 10° SE night (unlit)
15 Jul - 01:49:00 10° WSW 01:53:10 17° SSW 01:57:28 10° SSE night (unlit)
15 Jul - 07:39:11 10° S 07:42:31 13° SSE 07:45:53 10° SE daylight
15 Jul - 09:30:35 10° SW 09:37:46 38° SSE 09:44:54 10° E daylight
15 Jul - 11:24:26 10° WSW 11:32:17 70° NNW 11:39:53 10° NE daylight
15 Jul - 13:21:11 10° WNW 13:26:54 22° NNW 13:32:26 10° NNE daylight
15 Jul - 21:05:19 10° NNW 21:10:43 27° NNE 21:16:06 10° E visible
15 Jul - 22:58:20 10° WNW 23:04:48 80° SSW 23:11:26 10° ESE night (unlit)
16 Jul - 00:54:05 10° WSW 00:59:05 23° SSW 01:04:15 10° SSE night (unlit)
16 Jul - 08:37:04 10° SSW 08:43:35 29° SSE 08:50:08 10° E daylight
16 Jul - 10:30:18 10° WSW 10:38:13 87° SSE 10:46:00 10° ENE daylight
16 Jul - 12:26:05 10° W 12:32:44 30° NNW 12:39:11 10° NNE daylight
16 Jul - 20:12:08 10° NNW 20:16:45 20° NNE 20:21:19 10° ENE visible
16 Jul - 22:04:33 10° NW 22:11:00 73° NNE 22:17:31 10° ESE visible
16 Jul - 23:59:29 10° W 00:05:06 30° SSW 00:10:53 10° SSE night (unlit)
17 Jul - 07:43:45 10° SSW 07:49:22 21° SSE 07:55:03 10° ESE daylight
17 Jul - 09:36:21 10° SW 09:44:08 65° SSE 09:51:53 10° ENE daylight
17 Jul - 11:31:19 10° W 11:38:36 41° NNW 11:45:44 10° NE daylight
17 Jul - 13:30:13 10° NW 13:33:40 13° NNW 13:37:03 10° N daylight
17 Jul - 19:19:11 10° N 19:22:41 15° NNE 19:26:09 10° NE visible
17 Jul - 21:10:54 10° NW 21:17:12 51° NNE 21:23:27 10° ESE visible
17 Jul - 23:05:09 10° W 23:11:13 42° SSW 23:17:24 10° SE night (unlit)
18 Jul - 01:03:12 10° SW 01:05:54 13° SSW 01:08:39 10° S night (unlit)
18 Jul - 06:50:43 10° SSW 06:55:04 16° SSE 06:59:29 10° ESE daylight
18 Jul - 08:42:36 10° SW 08:50:01 48° SSE 08:57:32 10° ENE daylight
18 Jul - 10:36:50 10° WSW 10:44:30 56° NNW 10:52:06 10° NE daylight
18 Jul - 12:34:18 10° WNW 12:39:21 18° NNW 12:44:19 10° NNE daylight
18 Jul - 18:26:53 10° N 18:28:30 11° NNE 18:30:06 10° NE visible
18 Jul - 20:17:22 10° NW 20:23:21 36° NNE 20:29:13 10° E visible
18 Jul - 22:11:00 10° WNW 22:17:23 60° SSW 22:23:48 10° SE visible
19 Jul - 00:07:43 10° WSW 00:11:46 17° SSW 00:15:54 10° SSE night (unlit)
19 Jul - 05:58:22 10° S 06:00:43 11° SSE 06:03:05 10° SE daylight
19 Jul - 07:49:02 10° SW 07:55:54 36° SSE 08:02:56 10° E daylight
19 Jul - 09:42:36 10° WSW 09:50:24 75° NNW 09:58:15 10° NE daylight
19 Jul - 11:38:58 10° WNW 11:45:06 25° NNW 11:51:09 10° NNE daylight
19 Jul - 19:23:56 10° NNW 19:29:25 26° NNE 19:34:46 10° E visible
19 Jul - 21:17:02 10° WNW 21:23:36 86° SSW 21:30:05 10° ESE visible
19 Jul - 23:12:46 10° WSW 23:17:46 23° SSW 23:22:49 10° SSE night (unlit)
20 Jul - 06:55:40 10° SSW 07:01:45 26° SSE 07:08:01 10° E daylight
20 Jul - 08:48:35 10° WSW 08:56:19 82° SSE 09:04:14 10° ENE daylight
20 Jul - 10:44:02 10° W 10:50:53 33° NNW 10:57:44 10° NNE daylight
20 Jul - 12:44:17 10° NW 12:46:16 11° NNW 12:48:16 10° N daylight
20 Jul - 18:30:39 10° NNW 18:35:24 20° NNE 18:40:01 10° ENE visible
20 Jul - 20:23:10 10° NW 20:29:48 68° NNE 20:36:14 10° ESE visible
20 Jul - 22:18:08 10° W 22:23:50 32° SSW 22:29:34 10° SSE visible
21 Jul - 06:02:33 10° SSW 06:07:34 19° SSE 06:12:44 10° ESE daylight
21 Jul - 07:54:47 10° SW 08:02:15 61° SSE 08:09:58 10° ENE daylight
21 Jul - 09:49:25 10° W 09:56:44 44° NNW 10:04:08 10° NE daylight
21 Jul - 11:47:43 10° NW 11:51:51 15° NNW 11:55:58 10° N daylight
21 Jul - 17:37:33 10° N 17:41:16 15° NNE 17:44:53 10° NE daylight
21 Jul - 19:29:26 10° NW 19:35:58 48° NNE 19:42:12 10° ESE visible
21 Jul - 21:23:44 10° WNW 21:29:59 45° SSW 21:36:09 10° SE visible
21 Jul - 23:21:45 10° SW 23:24:32 13° SSW 23:27:20 10° S night (unlit)
22 Jul - 05:09:50 10° S 05:13:21 14° SSE 05:16:54 10° SE visible
22 Jul - 07:01:11 10° SW 07:08:12 44° SSE 07:15:31 10° E daylight
22 Jul - 08:55:05 10° WSW 09:02:37 59° NNW 09:10:21 10° NE daylight
22 Jul - 10:52:06 10° WNW 10:57:30 20° NNW 11:02:54 10° NNE daylight
22 Jul - 16:44:56 10° N 16:46:59 11° NNE 16:49:01 10° NE daylight
22 Jul - 18:35:49 10° NW 18:42:03 35° NNE 18:48:00 10° E visible
22 Jul - 20:29:31 10° WNW 20:36:10 65° SSW 20:42:36 10° SE visible
22 Jul - 22:26:13 10° WSW 22:30:27 18° SSW 22:34:41 10° SSE night (unlit)
